This is the latest recevied weather packets stored in our database for station/object YD2APR-13. If no packets are shown the sender has not sent any weather packets the latest 10 day(s).
| Time | Temp. | Humidity | Pressure | Rain* | Wind** | Luminosity | Snow |
|---|---|---|---|---|---|---|---|
| 1777814461 | 25° C | 87% | 1016.8 hPa | - | - | - | - |
| 1777813860 | 25° C | 87% | 1016.7 hPa | - | - | - | - |
| 1777813262 | 25.56° C | 86% | 1016.5 hPa | - | - | - | - |
| 1777812660 | 25.56° C | 87% | 1016.3 hPa | - | - | - | - |
| 1777812060 | 25.56° C | 87% | 1016.3 hPa | - | - | - | - |
| 1777811460 | 25.56° C | 86% | 1016 hPa | - | - | - | - |
| 1777810860 | 25.56° C | 87% | 1015.9 hPa | - | - | - | - |
| 1777810260 | 25.56° C | 86% | 1015.8 hPa | - | - | - | - |
| 1777809660 | 25.56° C | 86% | 1015.6 hPa | - | - | - | - |
| 1777809060 | 25.56° C | 86% | 1015.4 hPa | - | - | - | - |
| 1777808460 | 25.56° C | 85% | 1015.2 hPa | - | - | - | - |
| 1777807860 | 25.56° C | 86% | 1014.9 hPa | - | - | - | - |
| 1777807260 | 25.56° C | 86% | 1014.9 hPa | - | - | - | - |
| 1777806660 | 25.56° C | 86% | 1014.7 hPa | - | - | - | - |
| 1777806061 | 25.56° C | 87% | 1014.7 hPa | - | - | - | - |
| 1777805460 | 25.56° C | 87% | 1014.5 hPa | - | - | - | - |
| 1777804860 | 25.56° C | 86% | 1014.4 hPa | - | - | - | - |
| 1777804260 | 25.56° C | 86% | 1014.1 hPa | - | - | - | - |
| 1777803660 | 26.11° C | 84% | 1014.3 hPa | - | - | - | - |
| 1777803062 | 26.11° C | 83% | 1014.1 hPa | - | - | - | - |
| 1777802460 | 27.22° C | 78% | 1013.7 hPa | - | - | - | - |
| 1777801862 | 28.33° C | 74% | 1013.7 hPa | - | - | - | - |
| 1777801262 | 28.89° C | 72% | 1013.6 hPa | - | - | - | - |
| 1777800660 | 29.44° C | 69% | 1013.5 hPa | - | - | - | - |
| 1777800061 | 30° C | 66% | 1013.4 hPa | - | - | - | - |
* Rain since midnight (hover to see other rain measurements)
** Current wind speed in m/s (hover to see current wind gust speed)